Theta_e
316 315 316 317 314 313 313 313 313 313 315 317 318 319 323 327 328 329 328 328 328 327 326 325 324 324 323 323 326 325 326 329 330 330 331 331 332 332 333 332 332 333 333 333 333 333 332 331 331 330 329 329 329 329 329 328 327 322 317 318 320 318 317 316 316 317 319 320 321 321 320 321 320 320 321 322 322 322 322 322 321 321 321 321 321
317 314 314 316 316 314 313 313 313 313 314 316 317 319 325 329 329 329 328 328 327 326 326 324 324 324 323 323 327 327 327 329 329 330 331 331 332 332 333 333 333 333 334 333 332 332 332 331 331 331 329 328 329 329 329 328 327 325 320 316 315 313 313 311 311 312 312 313 316 317 318 318 319 319 319 319 319 320 321 321 321 321 320 319 319
317 315 313 314 316 315 313 313 313 313 313 316 316 320 327 330 329 329 329 328 326 326 325 324 324 323 322 322 327 329 329 330 329 330 330 331 332 333 333 333 333 334 334 333 331 332 331 331 332 331 330 329 329 329 329 329 327 326 321 316 313 310 309 308 308 308 308 308 309 311 312 314 316 318 318 316 315 315 316 317 317 317 316 316 317
318 315 313 313 315 316 314 313 313 313 313 315 316 320 328 330 329 329 329 327 326 325 325 324 323 323 322 323 327 329 329 330 329 330 330 331 332 333 334 334 334 334 334 334 333 333 332 332 332 332 331 330 329 329 329 329 328 327 324 319 315 311 308 306 306 306 306 305 305 306 307 309 311 312 313 313 312 312 313 314 314 314 313 314 315
320 315 312 312 314 315 314 313 313 313 313 314 315 319 327 330 329 329 329 327 326 325 324 324 323 322 323 325 328 328 328 330 329 330 331 332 333 334 335 335 334 334 334 334 334 333 333 332 332 332 331 331 330 328 328 328 328 327 326 323 318 313 309 306 306 306 306 305 305 305 304 306 307 308 311 312 312 313 314 314 314 313 312 314 314
321 316 313 312 313 315 314 313 313 313 313 314 315 318 326 330 329 329 328 326 326 325 324 324 324 324 324 324 325 326 328 330 330 331 332 332 334 335 336 335 335 335 334 334 334 334 333 332 332 332 332 331 330 329 328 328 328 327 326 325 321 315 310 306 306 307 308 306 304 304 305 306 307 307 309 311 312 314 313 312 313 313 313 315 316
321 318 313 312 313 315 314 313 313 313 313 314 315 316 323 328 328 328 328 326 325 325 323 324 325 326 325 324 322 324 328 330 330 332 332 332 334 335 336 336 335 335 334 334 334 334 333 333 332 332 332 331 330 329 329 328 329 328 327 326 323 318 311 306 307 308 308 305 305 308 309 310 310 310 310 311 313 312 310 310 312 314 315 316 316
321 319 314 312 313 315 314 314 313 313 313 314 315 315 319 325 327 327 327 326 325 325 323 323 325 326 325 324 322 323 325 327 330 333 333 332 335 336 336 336 336 335 334 334 334 333 333 333 332 332 332 331 331 330 328 328 328 328 327 327 325 320 312 307 309 310 308 306 309 312 313 312 311 312 312 313 312 309 310 312 314 315 315 315 315
321 321 316 312 314 314 314 314 313 313 313 314 315 315 316 320 324 326 326 325 325 325 323 322 325 325 324 324 325 325 325 326 330 333 333 333 335 336 336 336 336 335 334 333 334 334 333 333 332 333 332 331 331 330 328 327 328 328 328 327 325 321 314 308 310 312 309 308 310 312 314 313 312 312 312 312 313 312 313 315 315 316 316 315 315
320 321 318 313 313 315 315 314 313 313 313 313 314 316 315 316 320 324 325 325 324 325 323 323 325 324 324 327 328 327 326 327 330 333 333 333 335 337 337 336 335 335 334 333 333 334 334 333 333 333 332 332 331 330 328 327 327 327 328 327 326 323 316 309 309 312 310 308 311 313 314 315 313 313 313 313 314 314 314 315 315 316 316 316 316
320 321 320 315 312 314 315 314 314 313 313 314 314 316 316 315 316 320 322 322 323 324 323 323 324 323 325 328 330 328 327 329 331 333 333 333 336 337 338 337 336 336 335 333 332 333 334 334 333 332 332 332 331 330 328 327 327 326 327 327 326 323 318 311 309 312 311 308 312 315 315 315 314 315 315 314 314 315 315 314 315 316 315 315 315
320 321 322 318 313 313 315 314 314 313 313 314 314 315 316 315 314 315 319 321 322 322 323 323 322 322 325 328 330 331 331 332 333 334 334 333 335 337 338 338 337 336 336 334 331 331 333 334 333 332 333 332 331 330 329 328 327 326 327 327 327 324 318 313 310 311 312 310 311 314 315 314 315 315 315 315 315 315 315 314 314 315 315 314 314
320 321 322 320 315 313 314 315 314 313 314 314 314 315 315 316 316 314 317 321 322 322 322 322 321 321 325 327 328 330 331 332 333 334 333 333 334 337 338 338 338 336 335 334 332 331 332 334 334 333 333 333 331 330 329 329 328 326 327 326 327 325 320 314 311 309 311 312 310 312 315 315 314 314 314 314 315 315 315 315 314 314 314 314 313
322 321 321 321 317 314 313 314 315 314 314 314 314 314 314 316 317 315 316 320 323 323 322 320 320 321 323 325 326 326 327 327 328 329 331 332 334 337 338 339 338 336 335 335 333 332 332 333 334 333 333 333 332 330 329 330 328 327 327 326 327 327 321 315 313 308 308 312 310 310 314 315 314 314 314 314 315 315 315 314 314 314 314 313 313
324 322 321 320 319 316 314 314 314 314 314 314 313 314 314 315 317 317 317 321 323 323 322 321 321 321 321 322 323 323 323 323 323 324 328 332 334 337 339 338 338 337 336 334 333 332 332 333 334 333 333 333 332 331 330 330 329 327 326 326 326 327 322 316 314 310 308 311 310 309 312 314 314 313 313 315 314 314 315 314 314 314 314 313 313
325 323 321 320 319 318 315 313 314 314 314 314 314 313 314 314 316 317 318 321 324 325 324 322 322 322 323 323 322 322 322 322 323 325 330 334 336 337 338 338 339 338 336 334 333 333 334 334 334 334 333 332 331 331 330 330 329 327 327 326 326 327 323 317 314 311 309 311 310 308 311 314 315 313 313 315 315 315 315 315 313 312 312 313 312
326 323 322 320 320 320 316 314 314 314 314 314 314 313 313 314 315 316 317 320 326 328 327 325 324 324 326 326 324 323 325 326 327 329 332 335 337 337 338 338 338 338 337 335 334 334 334 335 334 334 333 331 331 330 330 330 328 327 327 326 326 327 324 318 314 311 310 311 309 308 311 314 315 313 314 314 314 315 315 315 314 311 311 312 312
328 324 320 320 320 321 319 315 314 314 314 314 313 313 314 313 314 315 316 320 326 330 330 328 328 328 328 328 326 325 326 328 331 331 332 333 335 336 336 337 337 337 337 336 335 334 334 335 335 333 332 330 330 331 331 330 329 327 326 326 326 327 325 319 314 311 311 310 308 307 311 315 314 313 314 314 314 316 315 315 314 311 311 312 312
329 325 320 318 319 321 321 318 315 313 313 314 313 313 313 313 313 314 313 317 324 329 329 329 329 329 329 329 328 326 325 327 330 331 331 331 333 335 335 334 335 337 337 336 335 335 335 336 335 332 331 330 330 332 332 330 329 329 327 325 326 327 326 321 315 312 311 311 309 308 311 315 314 313 314 315 315 316 315 315 313 311 311 311 312
329 327 321 318 318 320 322 321 318 315 313 313 313 313 313 313 313 314 313 315 319 324 326 327 329 330 329 328 328 326 325 325 328 330 331 331 332 333 333 333 333 335 336 336 335 335 335 336 335 332 331 330 330 331 332 331 329 330 328 326 326 327 326 323 316 312 312 311 307 308 312 314 313 313 314 315 315 316 315 314 312 311 311 311 311
330 327 324 321 319 320 323 322 321 318 315 313 312 312 313 314 313 313 314 314 316 320 324 326 328 328 328 328 327 326 325 325 328 331 331 332 333 334 333 333 333 334 335 335 335 334 335 335 334 333 331 331 330 330 331 330 329 330 329 327 326 326 327 324 317 312 310 309 306 309 313 314 313 313 314 315 314 314 313 312 312 312 312 311 311
332 327 326 323 319 321 324 324 322 321 318 315 314 314 314 315 315 314 314 315 316 319 324 327 328 329 328 328 329 327 326 326 328 330 330 331 334 335 334 334 334 333 333 334 335 334 335 335 334 333 332 331 330 330 329 328 329 330 329 327 326 326 327 324 318 312 308 307 307 310 313 314 313 313 313 314 314 313 312 312 312 313 312 311 311
334 329 327 323 321 322 324 324 324 323 322 319 317 318 320 321 320 317 315 315 316 318 324 330 332 332 330 328 329 329 325 325 328 329 330 333 335 335 335 335 334 334 334 334 335 335 335 335 334 333 332 331 330 331 329 327 327 329 329 328 326 325 327 324 319 312 307 307 309 311 314 315 314 313 313 313 312 311 312 312 313 313 312 311 311
335 331 327 325 324 324 325 326 326 324 323 322 319 320 324 326 324 321 318 315 316 319 324 330 333 332 330 328 329 329 325 324 328 331 333 335 336 336 336 336 335 334 335 335 335 336 335 335 334 333 332 331 330 332 331 327 327 329 330 329 326 325 327 325 320 313 307 308 311 312 314 315 314 314 314 312 312 311 311 312 312 312 311 310 312
336 332 329 327 325 324 325 326 326 324 324 324 322 320 323 326 325 323 321 317 316 319 322 328 331 331 329 328 329 327 323 325 329 331 334 337 338 337 337 336 335 335 336 335 335 336 334 334 333 332 333 330 329 332 332 327 327 329 330 329 326 325 327 325 320 314 307 308 313 313 314 315 313 314 313 312 312 312 311 311 311 311 310 310 311
337 335 332 329 327 326 326 327 326 325 325 325 324 322 321 323 323 323 322 320 319 320 323 328 330 330 329 327 326 322 321 326 330 333 337 339 339 337 337 337 336 336 337 336 336 335 334 334 333 332 332 330 329 332 331 327 326 327 328 328 326 325 326 325 320 314 307 308 313 313 313 315 314 313 311 310 312 312 311 311 311 311 311 311 311
338 337 335 331 329 330 330 330 329 329 328 326 325 324 323 322 322 322 322 321 322 323 326 328 329 329 328 325 322 318 320 326 329 334 338 340 339 338 337 337 337 336 337 336 336 336 334 334 332 332 332 331 331 332 331 328 326 327 328 328 326 324 325 324 320 315 307 306 311 312 312 313 314 312 309 308 310 312 312 311 310 311 312 311 311
337 337 336 333 331 332 333 332 331 330 329 328 327 326 326 325 323 322 322 321 323 324 326 327 327 327 326 323 319 317 320 324 327 332 337 338 338 338 337 337 337 337 337 336 336 336 335 334 333 332 332 331 331 331 331 329 328 328 329 328 326 324 325 324 321 316 308 304 308 311 311 311 311 311 308 306 310 311 312 311 310 311 312 311 311
334 334 334 333 331 333 335 335 333 332 331 330 329 328 328 328 326 325 323 322 322 323 324 325 324 325 325 322 318 317 320 323 325 329 335 336 337 338 338 337 338 338 337 337 336 336 335 335 334 333 332 331 330 330 331 330 328 327 329 328 325 325 325 324 321 317 310 304 304 307 309 309 308 309 307 305 309 312 312 311 311 311 312 312 312
335 334 333 333 330 329 333 336 335 333 332 331 331 330 330 330 329 327 326 325 324 324 323 323 323 324 324 321 317 317 321 325 327 331 335 337 338 338 337 337 337 338 338 338 337 336 336 335 334 333 332 332 330 330 330 330 329 327 328 328 325 325 325 324 322 319 311 305 304 304 306 307 306 307 307 305 307 312 312 312 312 312 311 312 313
336 335 335 334 331 328 331 336 336 334 334 333 333 332 332 331 330 329 328 326 325 325 323 323 324 324 323 321 318 317 321 329 333 335 338 339 338 339 338 338 337 337 338 338 338 337 336 335 335 333 332 332 331 330 330 330 330 328 328 328 325 324 325 324 322 321 314 308 305 304 305 307 306 306 307 305 306 311 314 312 312 313 312 312 312
335 336 335 334 333 331 331 333 334 334 334 334 334 333 332 332 331 330 328 326 325 325 325 323 323 324 322 320 319 317 321 330 337 338 339 339 339 339 339 338 337 337 338 338 338 338 336 336 336 334 332 332 332 331 331 330 330 329 328 327 325 323 324 324 322 321 318 311 306 305 306 307 307 306 307 308 307 310 313 313 312 312 312 311 311
333 336 336 335 334 334 332 330 330 331 332 333 334 334 332 331 330 329 329 327 325 326 326 324 322 322 321 320 320 319 320 327 335 338 338 339 339 340 340 338 336 336 337 338 338 338 337 336 336 335 333 332 332 332 331 331 331 329 328 327 325 323 323 324 323 321 320 316 309 307 307 307 308 307 308 310 308 308 312 312 311 311 311 311 311
331 335 337 336 335 334 333 332 330 330 330 331 333 334 332 329 328 327 327 326 326 327 327 325 321 320 320 319 319 320 321 325 332 336 337 339 341 340 338 336 335 335 336 337 338 338 337 336 337 336 334 333 332 332 331 331 331 330 329 328 326 324 323 324 324 322 321 319 314 310 309 308 309 309 308 308 306 306 309 311 311 310 309 310 311
329 334 337 336 335 334 335 335 333 331 329 330 332 333 332 330 327 327 327 326 326 326 326 324 321 320 319 319 318 319 321 326 331 334 335 339 341 339 336 335 336 336 336 337 338 338 337 337 337 336 335 334 333 332 331 331 331 331 329 329 327 325 324 324 325 323 322 321 318 315 313 310 310 310 310 308 306 304 306 309 311 310 309 309 310
328 332 335 337 336 335 335 335 334 333 330 330 332 333 333 331 330 329 329 328 327 326 325 323 322 321 319 318 318 319 321 326 331 333 334 338 340 338 335 334 335 336 337 337 337 338 337 337 337 337 336 334 333 332 332 331 331 331 329 328 327 325 324 324 324 324 323 322 321 320 317 314 312 312 311 310 308 305 304 306 309 310 310 310 310
327 330 333 336 336 335 334 334 334 334 333 331 331 332 332 332 331 330 330 329 328 326 326 325 324 322 320 318 319 320 320 323 328 331 332 336 338 336 334 333 332 333 335 337 338 338 337 337 338 337 336 335 333 331 332 331 331 330 329 327 327 326 325 324 324 324 323 322 322 321 320 318 316 314 313 311 310 308 305 304 306 308 310 310 310
327 327 330 334 336 336 335 334 333 334 334 333 331 331 331 331 332 331 331 330 329 327 327 326 325 324 321 319 320 321 319 319 324 328 329 332 336 335 333 332 331 330 333 336 337 337 337 338 338 337 336 334 332 331 331 331 330 329 328 327 327 326 324 323 324 325 324 323 323 322 321 321 320 318 315 312 310 309 307 305 304 305 307 309 309
327 327 328 330 333 335 336 335 335 335 335 335 333 332 331 331 332 332 331 331 331 330 328 327 326 325 322 320 320 322 320 317 320 324 326 330 335 335 333 332 332 331 332 334 336 337 337 338 338 338 337 335 332 330 330 330 330 329 329 328 327 326 325 324 324 324 323 323 324 323 321 321 321 320 318 314 312 311 309 307 306 305 306 308 308
326 327 328 328 330 334 336 336 336 336 336 336 336 334 332 332 332 332 333 333 333 332 331 328 327 326 324 320 319 322 321 319 318 320 322 328 333 335 333 333 334 334 333 333 335 337 336 337 338 338 337 335 333 330 330 330 330 329 328 328 327 326 325 324 323 323 323 323 324 324 322 322 321 321 320 317 315 314 312 310 308 308 308 308 307
324 327 328 329 330 332 334 335 336 336 337 337 337 336 334 333 333 333 333 334 335 334 333 331 330 329 327 321 319 321 322 320 318 318 322 328 332 333 334 334 334 335 334 333 333 335 336 336 338 339 338 336 334 331 330 328 328 328 327 327 327 325 325 325 324 324 323 324 325 325 324 323 323 322 322 320 319 318 316 313 311 311 311 310 309
324 327 328 329 330 331 332 333 333 333 334 335 335 335 335 335 335 334 335 335 336 335 335 334 332 332 330 324 319 320 321 321 319 317 321 327 331 333 333 333 334 336 336 333 331 333 334 336 337 339 338 337 336 334 331 328 327 328 328 328 326 325 325 325 325 324 324 324 324 324 324 324 324 323 322 322 321 320 319 317 315 314 314 313 312
325 326 327 329 330 331 332 333 333 333 332 331 331 331 332 333 334 335 336 336 336 336 336 335 334 333 332 328 322 319 319 319 318 317 320 326 331 334 333 332 334 336 336 335 332 331 332 334 336 338 338 337 336 336 334 330 328 328 328 328 328 326 326 325 325 325 324 324 324 324 324 324 324 323 323 323 323 322 321 320 318 317 316 314 313
324 325 326 328 329 330 332 333 333 334 333 331 330 329 329 330 331 332 334 336 337 337 337 336 335 334 333 331 327 323 319 318 318 318 318 322 329 334 334 332 333 336 337 335 333 331 331 332 335 337 338 337 336 336 335 332 329 329 328 328 328 328 327 326 326 325 324 324 324 325 325 325 325 325 324 324 324 323 323 322 320 318 318 316 314
322 323 325 327 329 329 331 332 333 333 333 332 331 330 329 329 329 329 332 334 335 336 337 337 336 335 334 333 330 325 321 319 319 318 318 319 324 330 331 331 332 335 337 336 334 332 331 332 334 335 336 336 336 336 336 333 331 330 329 328 328 328 328 327 326 326 325 324 324 325 325 325 325 325 325 325 324 324 324 323 321 320 319 318 316
322 322 324 326 328 328 328 330 331 332 332 333 333 332 330 330 329 329 330 332 333 335 336 336 335 335 336 335 332 326 322 321 321 319 319 320 323 328 331 331 331 333 336 336 335 334 333 333 334 335 336 336 336 336 337 335 332 331 330 328 327 328 328 327 326 327 327 326 326 326 326 324 324 325 325 325 324 324 323 323 322 321 319 318 318
324 322 323 324 326 326 325 325 327 328 329 331 333 334 332 331 331 331 331 331 331 333 334 335 334 335 336 335 332 327 325 325 324 322 322 323 325 329 332 333 332 333 335 335 335 335 335 334 334 335 335 334 334 336 337 336 334 332 330 328 328 327 327 328 327 327 327 327 326 326 326 325 323 323 324 324 323 323 323 323 322 321 320 319 318
327 325 324 324 325 326 324 322 323 326 327 328 330 333 334 333 333 333 334 333 332 331 333 334 334 334 335 334 331 329 329 329 328 327 327 327 328 329 332 334 334 335 335 335 336 336 336 336 335 335 335 334 334 336 337 336 334 332 331 329 329 328 328 328 328 328 327 327 326 326 326 324 323 323 323 323 323 323 323 323 323 321 320 319 319
328 327 325 324 326 327 325 323 323 324 326 327 328 331 334 334 334 334 334 334 334 333 333 334 334 335 335 334 332 333 333 333 332 331 331 330 330 329 331 333 335 336 335 335 336 337 337 337 337 336 336 335 335 336 338 337 335 333 331 329 329 328 328 328 328 328 327 327 326 326 326 325 324 323 322 322 322 323 324 323 322 321 320 319 319
326 325 324 325 327 327 326 325 323 324 326 326 327 329 333 334 335 334 333 333 333 333 333 335 335 335 335 334 333 334 335 333 332 333 334 334 333 332 332 334 336 336 335 335 336 337 337 338 338 337 337 336 336 336 337 337 336 334 332 331 330 328 327 328 328 327 327 327 326 326 326 325 324 323 323 322 322 322 323 323 322 321 321 320 319
324 325 325 325 327 327 327 325 324 324 325 325 325 328 331 334 335 334 334 333 331 331 333 334 336 336 335 333 332 333 333 331 330 332 334 336 337 336 336 337 337 336 334 334 335 337 338 338 338 337 336 336 335 335 336 337 337 335 334 333 332 330 328 328 328 328 328 327 327 326 326 325 324 323 322 322 322 321 321 321 321 321 320 320 319
Wind_Speed
15 18 22 24 25 24 23 21 20 18 17 17 17 18 18 18 18 16 14 12 11 9 5 4 3 2 2 5 7 4 3 4 4 4 5 4 4 4 5 6 5 5 3 2 3 3 4 5 5 8 11 12 13 13 15 16 17 16 11 8 6 5 3 2 3 4 6 7 6 7 8 8 8 7 6 7 7 6 6 6 6 6 5 5 4
13 15 20 24 26 25 24 22 20 18 17 17 17 19 19 19 17 15 14 13 12 10 6 4 3 2 3 5 6 4 4 4 5 6 6 5 4 4 6 6 5 5 3 4 5 4 4 4 5 7 10 13 14 14 15 16 17 17 12 8 8 7 6 4 2 2 4 7 8 9 9 10 10 9 8 8 8 9 9 9 9 9 8 8 7
12 14 17 22 26 25 24 22 21 18 17 17 17 19 20 19 17 15 13 13 13 11 6 4 3 2 4 5 4 5 5 5 7 7 6 6 5 5 6 6 5 5 4 6 5 3 4 4 5 6 8 11 14 14 15 16 16 17 15 12 10 10 9 8 6 3 2 4 6 8 9 10 11 11 11 10 10 10 9 8 8 7 7 7 7
13 13 15 21 25 26 25 23 21 19 18 17 17 20 21 19 17 15 13 14 14 11 8 4 2 1 4 4 3 5 6 6 7 8 7 7 6 6 7 6 6 5 5 6 4 3 4 3 4 5 6 10 13 14 15 16 16 17 17 16 14 12 10 10 8 6 4 3 3 4 6 7 9 10 9 9 8 4 1 1 2 1 1 1 2
14 14 14 19 23 26 25 23 21 20 19 18 18 20 21 20 18 17 15 14 14 12 9 6 2 1 3 3 3 4 5 7 7 8 8 8 7 6 7 7 7 6 6 5 4 4 3 3 4 4 5 8 12 15 15 16 16 17 17 17 17 14 11 11 10 8 6 5 3 1 1 3 4 4 2 1 2 5 5 4 3 3 6 7 7
15 15 15 18 22 26 25 24 22 21 20 19 19 20 22 22 19 18 16 15 14 12 11 7 3 1 3 3 4 4 4 6 7 7 8 10 8 7 7 7 7 6 6 5 3 4 3 3 4 3 4 7 11 14 14 15 16 16 15 16 18 16 13 12 10 9 8 8 6 5 4 3 4 4 5 6 7 7 6 5 6 9 12 13 13
17 16 16 18 22 25 25 24 23 22 21 20 20 21 23 24 21 19 17 16 15 13 12 9 4 4 6 6 5 4 4 4 5 6 8 10 8 7 8 8 8 6 6 5 3 3 2 2 3 3 4 6 9 13 13 14 16 15 14 16 19 18 15 13 10 9 9 8 7 7 8 8 9 9 9 9 8 8 8 9 11 15 16 15 15
19 18 17 19 22 25 26 25 24 23 21 21 21 21 23 25 23 21 19 17 16 14 13 10 7 6 8 8 6 5 4 4 4 5 7 10 8 7 8 8 8 7 7 5 3 3 2 2 3 3 3 5 8 11 12 13 14 15 15 17 19 19 17 13 10 11 11 10 9 9 10 10 11 11 11 10 9 12 14 14 17 17 16 15 14
21 19 18 20 23 25 26 26 25 23 22 22 22 22 23 25 25 23 21 19 17 16 14 12 9 7 9 8 7 6 5 4 3 5 7 8 7 7 8 9 8 7 7 6 4 3 2 3 3 3 4 5 7 9 10 12 12 15 16 17 19 20 18 13 10 10 12 12 10 10 11 10 11 11 11 11 11 14 16 17 18 17 16 15 14
22 21 19 20 23 26 27 26 26 24 23 23 22 22 23 24 25 24 23 21 19 17 15 13 10 8 8 7 7 6 4 3 3 4 6 7 6 6 8 8 7 6 6 6 5 2 2 3 2 2 4 3 5 8 9 11 11 12 15 17 18 20 18 13 10 9 11 12 10 10 11 10 11 12 12 13 13 14 16 17 17 17 15 14 13
24 23 21 21 23 27 28 27 27 25 25 24 23 23 24 24 24 24 23 21 19 18 16 14 11 9 9 7 6 4 2 3 3 3 5 6 5 5 6 7 7 6 6 6 5 3 3 3 2 2 4 1 3 6 7 9 11 11 14 16 17 19 18 13 10 8 8 11 10 9 10 10 11 12 12 13 14 14 16 17 16 16 14 12 12
25 25 23 22 23 27 29 29 28 27 26 26 25 25 24 24 24 23 22 21 20 19 17 15 12 9 10 9 6 3 3 4 5 5 5 6 5 3 4 6 5 5 5 5 4 4 4 3 1 3 5 2 4 5 6 8 10 10 12 14 15 18 17 13 9 7 7 9 9 9 9 10 11 12 12 13 14 15 16 15 15 15 13 11 12
26 27 25 23 23 26 30 30 29 28 27 26 25 24 24 24 24 23 23 21 20 19 18 16 13 11 11 11 9 7 6 7 8 7 7 7 6 4 3 4 5 4 5 5 4 5 5 3 1 4 4 3 4 4 4 7 10 10 11 12 14 16 16 12 9 7 6 6 7 8 8 8 10 11 13 13 13 15 15 13 14 13 13 12 13
27 27 26 24 23 25 30 32 31 30 28 27 26 25 25 24 25 24 24 23 21 20 19 17 14 12 12 12 11 10 10 10 11 10 9 9 7 5 3 3 4 4 4 4 4 5 5 3 2 5 4 3 3 3 3 6 9 10 9 10 12 14 15 12 9 8 6 5 5 6 7 7 8 10 12 13 13 15 13 12 13 14 13 13 13
28 28 28 26 25 25 28 31 32 31 30 29 28 27 26 25 25 25 24 23 21 20 19 17 15 14 13 12 12 11 11 11 10 10 9 8 7 5 4 4 3 4 4 4 3 4 5 4 4 5 3 1 1 3 3 3 6 7 6 7 9 11 14 11 9 9 6 5 4 5 7 7 7 9 12 13 14 15 13 11 12 13 12 11 11
29 29 29 28 27 26 27 30 32 32 31 30 29 28 27 26 26 26 25 24 22 21 20 18 16 15 13 11 10 9 8 8 7 6 6 7 7 5 4 5 4 4 4 4 3 4 4 4 4 4 3 1 1 2 4 5 5 5 4 5 6 9 13 11 9 9 5 4 5 5 7 7 7 9 12 14 14 14 12 11 9 9 10 10 10
30 31 30 29 29 28 27 29 31 32 33 32 30 29 28 28 27 26 27 25 23 22 21 19 18 16 15 14 11 7 5 4 3 4 4 5 5 4 4 6 6 5 5 4 3 2 3 4 4 4 3 3 4 4 4 5 6 6 4 4 5 7 11 10 9 8 4 3 4 4 8 7 8 10 12 13 14 13 11 9 6 6 10 11 9
32 33 32 29 28 28 27 28 30 32 34 33 31 30 29 29 28 28 28 27 24 23 23 21 19 19 19 19 17 13 11 8 5 4 4 4 5 4 5 6 8 7 6 5 3 3 3 4 3 5 3 2 5 6 5 3 3 5 5 3 3 6 9 10 9 7 3 3 3 5 8 7 8 11 13 13 13 12 10 8 6 8 12 12 10
34 34 33 30 28 28 28 28 28 30 34 34 33 31 30 30 29 29 28 28 26 25 24 23 22 21 21 21 21 20 19 15 12 9 7 6 5 5 4 6 8 8 6 5 4 4 3 2 2 5 4 1 2 5 4 1 1 2 4 4 2 5 8 9 8 6 3 3 3 5 8 8 8 11 13 13 11 10 10 7 5 8 11 11 10
35 36 34 31 30 29 29 29 28 29 32 35 34 32 31 31 30 30 29 29 29 28 25 24 24 23 23 23 23 21 19 19 18 14 12 10 8 7 6 7 8 8 7 6 5 5 5 4 3 3 4 2 2 7 6 3 3 4 3 3 2 2 6 8 8 4 3 2 1 5 9 9 9 11 13 12 11 11 9 6 5 7 8 11 11
35 36 34 33 32 30 29 30 29 29 31 33 34 33 32 32 32 31 31 30 30 29 26 25 25 24 23 23 22 21 19 18 18 17 15 13 12 11 10 9 9 8 7 6 6 6 6 6 3 2 3 2 3 5 6 6 5 5 3 2 2 0 4 6 6 3 2 1 2 6 9 9 9 11 13 12 12 11 9 7 6 7 8 11 12
35 36 35 34 33 32 31 31 30 29 30 31 32 32 32 32 32 32 32 31 30 30 27 26 25 25 24 22 21 20 19 18 18 17 17 15 13 12 11 9 8 8 7 7 7 6 6 6 4 2 3 4 4 4 4 6 4 5 4 1 4 3 3 5 5 3 1 1 3 8 10 10 9 10 12 12 11 11 10 9 8 8 9 11 10
36 38 37 35 34 33 33 32 30 29 30 31 31 31 31 31 31 31 32 31 30 30 28 26 26 26 24 23 21 20 20 19 18 17 17 15 13 11 10 9 9 8 7 7 7 6 7 7 5 4 4 5 6 4 2 5 6 7 7 3 5 5 1 4 5 3 1 2 5 9 11 11 10 9 9 10 10 11 12 12 10 9 9 9 9
36 39 39 37 35 34 34 33 32 31 31 32 32 31 30 29 28 29 30 31 30 30 30 27 27 27 26 24 22 21 20 19 17 17 16 15 13 10 7 8 9 9 7 7 7 7 7 7 6 5 5 5 7 7 5 6 7 8 8 6 7 6 1 3 4 3 1 4 7 9 10 11 10 10 9 9 11 11 13 12 10 9 8 9 10
38 39 39 38 37 36 35 35 33 32 31 32 32 32 32 30 28 28 29 30 30 30 30 28 27 27 26 25 23 22 20 17 16 16 16 16 14 11 8 8 9 9 8 8 7 8 8 8 8 7 6 6 5 8 9 8 8 9 9 9 9 7 3 2 3 2 2 6 8 9 11 10 10 10 10 10 11 11 11 12 11 9 8 10 10
40 40 38 38 38 37 36 35 33 33 32 32 31 32 33 32 30 29 29 29 29 29 29 28 26 25 25 25 24 22 19 16 15 16 16 15 15 13 10 10 10 10 10 9 8 9 9 9 9 9 8 6 5 9 10 7 7 9 10 9 9 9 5 2 2 2 2 8 10 10 11 10 9 9 8 9 12 11 10 11 11 10 9 10 9
39 38 36 35 37 38 36 35 35 34 33 33 33 33 33 33 32 31 29 29 29 29 29 28 26 24 24 25 24 21 18 16 16 17 16 14 14 13 12 11 12 12 11 11 10 11 10 10 11 10 9 7 7 10 10 8 7 9 10 9 9 11 8 4 2 1 2 8 10 10 10 11 11 8 6 7 11 12 11 10 11 12 10 9 9
36 35 34 33 34 37 36 35 35 34 34 34 35 35 35 34 33 32 30 30 30 29 29 28 26 25 24 25 24 20 18 16 16 18 17 15 14 15 14 12 12 12 12 12 12 12 11 11 12 11 9 7 7 8 8 9 9 9 12 12 10 12 11 6 3 0 2 7 10 10 10 10 10 8 6 7 9 11 12 10 11 12 11 9 9
38 37 36 33 35 37 36 36 35 34 35 35 36 36 37 36 34 33 31 30 30 30 30 28 27 25 25 25 23 21 18 16 17 18 18 16 15 16 15 14 14 13 13 13 13 12 12 12 12 11 9 8 7 6 6 7 7 9 13 13 11 13 12 7 4 1 3 6 9 10 10 10 9 7 6 7 8 10 11 10 11 12 11 11 10
40 40 38 36 36 38 37 36 36 36 36 37 37 37 37 37 36 34 32 31 31 31 30 29 28 26 26 26 24 21 19 17 17 17 17 16 15 16 16 15 15 15 14 14 14 13 12 11 10 10 9 8 7 6 6 6 5 8 13 13 11 13 12 8 5 2 2 5 7 9 10 9 8 7 6 6 9 11 11 10 11 11 11 12 12
39 41 41 38 37 39 39 37 37 37 37 37 37 37 38 38 37 36 33 31 32 32 30 30 30 28 27 27 25 23 20 19 18 18 17 16 15 17 17 16 17 16 15 15 15 14 12 10 9 7 8 9 7 6 7 7 6 8 13 12 10 13 12 9 7 3 2 4 6 8 9 8 7 7 7 7 9 12 12 11 11 12 11 12 13
38 41 43 41 38 38 38 37 36 37 38 38 37 37 37 38 38 37 35 32 32 32 30 30 31 30 28 28 26 24 21 20 20 19 18 16 16 18 18 18 18 18 17 16 16 15 14 12 11 8 8 9 10 8 7 8 6 7 11 11 11 14 14 11 8 5 3 4 6 7 8 7 6 6 7 8 9 11 12 11 11 13 13 12 13
35 41 44 43 40 39 39 38 36 35 36 36 37 37 36 36 37 37 36 34 33 31 30 29 30 31 30 29 27 24 21 21 21 19 18 16 17 19 19 19 19 19 18 17 16 15 15 14 14 12 10 10 11 10 9 9 8 6 9 11 13 15 15 12 10 8 5 5 7 8 8 7 6 5 4 7 8 9 12 13 12 13 14 15 14
33 39 44 44 42 41 40 39 37 35 36 35 35 35 34 34 35 36 35 34 33 32 31 31 31 31 31 31 29 25 22 21 22 20 18 17 18 19 19 18 19 19 19 18 17 16 15 15 14 14 13 12 13 12 11 10 9 8 8 11 14 17 16 14 13 11 8 7 7 9 9 7 7 5 3 5 6 7 10 13 14 14 14 15 16
31 36 41 42 42 41 41 40 38 37 37 35 34 34 33 32 33 33 33 33 34 33 33 32 32 32 32 33 31 27 23 22 22 21 18 17 18 19 18 17 18 18 19 19 18 16 15 14 15 14 14 14 13 13 12 10 9 9 9 10 13 17 18 16 16 14 11 10 9 9 9 9 8 6 5 5 7 7 9 12 14 15 15 15 16
29 32 36 40 41 40 39 40 40 39 38 35 33 33 32 31 31 31 31 32 34 34 34 34 33 32 33 34 33 29 26 24 23 21 19 18 19 19 18 17 18 18 19 19 18 17 15 15 15 14 14 13 13 14 13 12 11 11 10 9 12 17 19 18 17 15 13 12 11 10 10 10 9 8 7 7 7 8 9 12 13 15 17 17 16
28 29 33 38 40 41 40 40 40 40 39 36 34 32 32 31 30 30 31 31 32 33 34 34 34 33 32 34 35 31 28 26 24 22 20 19 19 19 18 18 19 19 19 20 19 18 16 15 15 15 14 13 13 14 15 14 13 12 12 11 11 15 19 19 18 17 16 15 14 13 12 12 11 10 10 10 10 9 10 12 13 15 17 17 17
28 27 29 34 38 41 41 41 40 40 39 37 34 32 32 31 31 30 30 31 31 32 34 34 33 33 31 32 35 32 28 27 25 23 21 20 20 20 19 19 19 19 20 21 21 20 18 17 16 16 15 14 14 15 16 16 15 14 13 13 12 14 19 21 20 21 20 19 17 16 15 15 14 13 13 14 14 12 12 12 13 16 17 19 18
28 27 27 30 34 37 39 40 40 40 40 40 37 34 33 32 32 30 30 30 30 30 31 33 33 32 30 31 34 32 29 27 26 23 22 22 21 21 20 20 19 19 20 22 22 21 20 19 19 17 16 15 14 14 15 15 16 16 16 16 15 15 18 21 22 22 22 21 20 19 19 18 16 15 15 15 16 15 14 13 14 16 18 20 19
28 27 26 27 30 34 38 41 42 41 41 41 40 37 35 34 33 31 30 29 29 28 28 30 31 30 29 30 34 33 29 26 25 24 23 23 22 22 21 20 19 18 19 22 23 23 22 21 21 19 18 17 15 15 16 17 20 21 20 19 18 16 16 18 19 21 22 22 21 21 21 20 20 19 18 18 18 18 17 16 16 17 19 19 19
27 26 26 26 28 31 34 38 41 41 40 38 37 36 35 35 33 31 30 29 29 28 27 28 29 30 30 30 33 33 29 26 25 25 24 24 23 22 21 20 20 19 19 22 24 25 24 23 23 21 20 20 18 17 18 19 20 21 20 20 19 17 16 17 18 20 22 23 24 25 24 23 23 23 22 22 22 21 20 20 19 19 19 20 20
27 26 26 26 27 27 28 30 31 34 35 34 34 33 33 34 33 31 30 29 29 28 28 28 29 30 31 31 32 33 30 27 27 27 26 25 24 22 20 20 20 20 20 22 25 26 26 25 25 24 24 22 20 19 19 17 17 20 21 21 20 18 18 19 20 21 22 24 26 27 27 25 26 26 25 25 24 23 23 23 21 20 20 22 21
27 26 25 25 24 24 25 25 25 27 29 30 32 32 32 32 31 31 31 30 29 28 28 28 29 30 31 31 30 31 30 28 28 29 28 26 24 22 20 20 21 21 21 23 25 27 27 27 27 26 26 23 21 20 19 17 17 19 21 21 21 22 22 21 22 23 24 25 26 27 27 26 27 28 28 26 25 25 25 25 23 21 21 22 22
27 26 25 23 22 22 23 24 24 25 26 28 30 31 31 32 31 31 31 31 30 29 28 28 29 30 31 31 30 29 28 28 28 29 29 27 25 23 21 21 22 22 22 22 24 27 29 29 28 28 27 24 22 21 20 18 16 17 19 21 23 25 24 23 23 23 22 22 25 27 28 27 29 30 30 29 28 27 26 25 24 23 23 23 22
27 26 24 22 22 21 21 22 23 23 25 28 30 30 30 32 33 33 32 31 30 29 27 26 27 28 29 30 30 28 26 27 28 28 28 27 25 24 23 23 23 23 23 22 23 25 27 29 29 29 26 23 22 21 19 18 16 15 16 20 23 26 27 26 24 23 21 20 22 25 26 27 28 30 31 31 30 29 27 25 25 25 25 24 23
28 26 24 22 22 21 20 21 20 21 23 26 28 30 31 33 34 34 33 32 30 28 27 25 25 26 27 28 28 28 27 27 28 27 27 27 26 25 25 26 26 26 26 25 25 26 27 29 31 30 27 24 23 21 19 19 18 15 15 17 19 22 24 25 24 23 23 22 23 24 26 26 25 28 30 30 29 28 26 25 25 26 25 25 24
28 25 23 23 22 21 20 20 20 20 22 24 26 29 32 33 34 34 34 34 31 30 28 26 25 25 25 25 26 27 27 27 28 27 27 27 26 26 27 28 28 29 29 29 29 29 29 30 31 30 28 26 24 22 22 22 19 16 15 15 14 15 18 22 25 25 24 23 23 24 26 25 24 27 29 27 25 24 24 24 26 27 25 24 24
27 25 24 24 23 22 21 20 21 22 23 24 26 29 32 33 35 37 37 35 33 31 29 28 27 25 24 24 25 26 26 26 25 25 25 26 26 26 27 28 29 30 32 31 31 30 30 30 30 30 29 27 25 25 25 23 20 18 18 18 17 16 19 23 25 25 24 24 24 24 25 25 24 25 26 25 24 23 22 22 24 25 25 24 24
27 26 25 25 25 24 23 22 22 24 24 24 25 29 32 34 36 38 38 37 34 31 30 29 28 26 25 25 25 25 24 23 23 22 22 23 24 25 26 28 30 32 33 33 33 33 32 32 31 30 30 29 27 26 27 26 23 21 21 22 21 21 23 26 27 26 26 25 24 24 24 25 25 25 25 25 24 23 21 21 21 22 24 25 25
25 25 26 26 26 26 25 23 23 24 25 24 24 27 31 35 37 38 38 37 35 33 31 30 28 27 27 26 26 25 24 23 21 21 21 22 23 25 25 27 29 32 34 35 36 36 35 34 33 33 32 31 30 28 28 29 28 26 26 25 23 23 26 28 29 28 27 27 25 24 24 25 25 25 26 26 25 24 24 22 21 21 23 24 25
24 25 26 27 27 27 26 25 25 26 26 25 25 26 29 32 36 38 38 37 36 35 32 30 29 29 28 28 27 26 25 24 23 22 22 22 23 25 25 26 29 32 34 35 36 38 38 37 36 35 34 32 31 31 31 31 32 30 29 27 25 25 27 29 29 29 30 30 27 25 26 26 26 26 27 26 26 27 26 25 24 24 24 24 24
Wind_Direction
213 211 210 210 209 206 202 201 199 194 189 186 183 182 180 178 179 181 184 191 198 202 210 219 235 262 343 353 343 356 89 65 37 39 41 44 27 14 7 358 334 329 332 326 -0 10 16 19 15 28 37 37 32 28 26 24 24 30 47 77 79 75 85 129 189 209 220 226 228 231 228 224 231 229 226 233 235 237 243 249 252 250 244 248 247
218 217 215 213 211 209 206 204 202 198 193 189 185 183 180 179 180 183 185 192 200 204 212 225 240 280 353 357 358 44 87 59 45 45 41 39 31 23 16 5 338 336 335 336 357 12 20 19 16 35 45 38 29 28 27 23 25 29 41 66 61 50 44 33 17 248 240 240 239 240 240 239 245 247 249 251 250 252 254 257 261 263 262 263 262
216 221 221 216 213 211 209 207 205 201 197 193 189 186 182 182 184 185 188 193 201 208 215 230 243 307 356 353 7 54 64 50 47 42 41 40 37 33 23 10 353 346 332 342 356 20 26 26 33 46 43 30 23 26 27 22 26 31 39 50 43 34 27 19 13 351 293 266 252 247 245 243 248 254 260 263 263 263 264 267 268 270 272 265 256
212 217 222 221 215 212 211 209 207 204 201 198 194 190 186 186 189 190 193 197 203 211 218 227 232 357 358 351 13 50 49 45 44 41 43 41 38 35 28 20 10 357 337 345 354 17 38 42 48 54 32 19 15 22 30 24 25 34 38 39 33 26 19 14 8 358 344 325 297 264 250 246 251 256 261 264 265 264 234 254 255 279 319 244 219
212 213 216 220 216 212 211 210 208 207 204 203 199 194 191 191 193 195 198 202 206 211 218 225 209 23 1 356 10 30 39 42 41 44 48 37 32 31 29 30 23 5 347 354 353 5 38 41 39 54 32 19 13 19 30 27 25 33 36 33 28 24 18 11 4 6 14 19 25 32 209 227 240 230 210 182 137 111 117 116 108 72 68 85 90
211 211 211 215 215 212 211 211 210 209 207 205 204 199 196 197 198 200 202 205 210 212 218 226 221 302 328 329 345 1 24 37 37 48 47 28 24 30 32 34 30 12 353 357 346 356 31 28 22 38 32 25 19 19 26 27 24 30 37 31 25 23 18 10 11 23 30 33 45 70 100 103 93 106 106 107 112 116 116 103 90 78 83 93 94
213 210 208 210 213 211 210 211 211 211 209 207 208 204 201 202 203 205 206 209 215 216 220 229 230 272 301 308 323 340 354 15 31 49 38 19 19 33 36 36 32 18 -0 358 347 1 21 22 20 27 25 24 24 22 24 26 21 25 34 29 25 23 19 16 22 36 45 46 57 73 83 83 79 81 88 96 101 106 100 89 92 91 93 99 100
213 211 207 206 211 211 210 211 213 213 211 209 210 208 205 206 208 211 211 212 220 221 224 230 231 263 293 301 307 317 329 343 17 38 23 11 17 37 39 35 32 23 11 4 354 8 7 4 19 19 18 18 22 23 26 28 19 19 27 28 26 23 21 25 30 41 52 55 66 75 75 77 78 79 84 90 94 98 96 91 95 95 92 97 105
215 212 208 206 207 211 211 211 215 215 212 212 213 212 210 209 211 215 217 217 222 225 227 231 234 262 286 296 301 300 305 315 358 19 6 3 14 36 39 31 29 28 21 21 11 359 357 10 19 1 3 16 20 18 28 35 22 16 22 25 26 22 23 31 34 41 46 49 67 78 75 75 77 84 86 87 92 95 95 96 99 96 93 98 105
221 215 210 207 205 208 211 213 215 217 215 214 215 215 214 213 212 216 220 221 224 226 230 233 240 265 281 293 302 293 284 296 337 351 348 357 10 31 36 25 26 28 26 34 30 3 355 8 -0 340 345 1 23 12 25 40 28 18 21 23 24 21 23 31 39 48 43 46 69 80 80 80 79 86 88 87 91 91 94 102 103 101 102 105 105
227 224 214 209 206 205 210 213 216 218 218 216 217 218 217 216 215 216 220 224 226 228 232 236 244 265 278 292 308 298 275 291 307 315 328 343 356 21 28 18 21 24 23 35 38 15 358 2 354 346 332 308 47 17 15 38 33 22 22 26 25 20 21 27 40 57 44 49 75 84 82 86 84 87 89 88 90 93 97 103 103 102 104 109 107
228 231 223 214 210 206 207 213 216 219 221 219 218 220 221 220 220 219 221 226 229 231 234 237 244 261 273 285 295 288 278 281 283 288 305 320 327 351 9 7 9 15 17 23 32 20 11 20 3 350 341 343 49 24 9 35 38 28 24 26 24 20 20 20 33 59 50 51 76 86 84 86 87 89 89 87 90 96 97 100 105 106 105 106 108
225 231 229 221 217 210 206 210 215 218 221 222 221 224 225 226 225 224 225 228 232 234 235 238 245 256 265 275 278 272 275 276 276 279 289 300 301 304 329 349 354 1 8 8 20 27 31 54 350 345 354 1 30 33 32 44 43 33 27 26 23 19 18 21 34 47 52 59 69 81 87 87 89 92 91 90 95 99 98 101 108 109 107 106 108
223 226 229 224 223 219 209 208 214 218 221 223 224 226 227 229 229 228 228 231 233 234 235 240 246 251 260 274 277 273 274 273 275 278 281 284 281 276 289 315 336 345 350 352 9 33 45 66 12 359 11 8 23 60 68 51 44 36 29 24 21 18 16 25 39 31 49 81 64 75 89 87 91 97 98 99 102 105 104 105 107 108 108 109 110
222 223 227 225 225 226 216 210 212 217 221 224 226 228 229 230 231 231 231 232 234 234 234 239 245 252 263 276 279 275 273 272 273 275 273 270 264 258 271 289 313 328 327 330 355 32 42 47 28 15 21 26 36 67 93 74 46 38 36 28 19 18 17 26 36 23 48 84 37 61 90 91 94 98 102 104 104 105 106 108 112 115 113 113 115
222 222 224 223 225 229 224 216 213 216 221 224 227 229 231 233 234 234 234 234 236 237 236 238 243 252 263 275 283 282 278 272 268 269 264 255 251 251 269 283 288 299 306 313 340 20 32 32 27 11 11 63 161 112 108 101 61 37 47 43 23 17 19 27 30 20 54 77 22 59 96 97 97 97 102 106 107 107 108 115 118 117 116 116 117
221 222 222 220 223 227 227 223 218 216 220 224 227 229 233 236 238 238 238 238 239 240 242 243 248 254 261 269 279 292 297 288 268 261 260 252 251 256 272 282 281 284 292 302 320 348 11 22 21 3 5 113 135 138 115 92 58 51 69 59 30 17 20 27 26 22 64 73 20 82 106 105 103 100 102 107 112 114 118 127 118 108 119 117 109
220 222 221 219 222 226 227 226 224 220 220 223 226 229 232 235 239 241 242 243 242 242 244 247 253 258 265 270 274 279 285 288 285 281 278 266 263 262 270 280 277 274 278 287 288 284 346 16 2 350 350 125 125 142 137 95 54 62 77 75 37 17 19 27 27 22 50 55 39 103 112 114 115 111 109 110 115 120 130 139 118 108 120 118 106
220 221 220 218 222 227 227 227 227 225 224 224 225 228 232 235 238 242 244 245 244 243 245 249 255 260 267 274 276 277 277 273 270 277 284 278 269 256 259 279 276 267 264 273 273 269 305 337 317 341 344 15 119 174 181 116 151 110 90 98 66 14 16 25 25 24 55 65 69 113 120 127 127 120 119 120 123 130 142 148 119 112 123 123 115
220 221 220 218 222 227 228 227 227 227 227 226 225 228 231 234 237 240 243 245 246 247 248 252 258 264 271 275 277 278 275 269 263 264 273 275 269 257 259 276 275 262 253 260 264 262 276 282 293 339 331 332 142 187 214 244 205 177 120 100 107 7 15 23 22 35 99 95 96 126 126 134 134 127 127 130 135 144 155 158 131 116 121 126 125
221 220 220 219 221 225 228 228 226 227 229 228 226 226 230 233 236 238 240 244 247 249 251 255 261 267 273 275 276 275 274 272 263 255 260 268 269 266 270 278 274 259 249 253 257 254 260 269 282 327 303 280 151 167 200 221 209 190 180 106 154 212 10 19 23 38 145 185 164 141 135 141 140 134 136 142 150 159 163 155 136 120 117 128 134
222 218 219 219 220 224 227 227 226 227 229 229 226 224 227 232 235 237 239 242 246 249 252 256 262 268 271 271 272 272 271 271 265 258 258 266 271 274 278 280 275 263 249 245 251 250 251 260 271 285 276 244 187 147 175 198 190 189 207 219 179 187 3 11 19 27 184 201 155 146 144 146 142 139 144 153 164 168 161 150 141 130 123 129 134
225 220 219 218 219 224 227 226 226 227 229 231 227 224 226 230 233 236 238 240 244 248 252 255 261 266 268 266 268 270 268 267 269 269 265 270 280 285 285 279 272 264 246 237 244 248 246 248 257 265 273 244 196 164 171 179 163 183 204 205 185 183 347 357 6 22 136 169 153 147 151 153 146 148 156 159 163 163 157 154 152 144 138 138 136
227 222 219 217 217 221 226 226 225 226 228 230 229 226 226 229 232 234 237 239 242 246 250 254 259 264 265 265 268 269 264 261 267 271 268 273 284 288 283 269 262 256 242 238 239 243 243 239 248 255 260 246 197 191 222 198 175 199 214 213 197 182 193 334 354 17 124 163 155 148 156 160 153 157 164 158 151 151 154 156 158 154 149 148 145
227 222 220 219 218 220 224 224 223 224 226 228 229 228 228 229 231 234 236 238 240 244 249 254 259 263 264 265 266 265 259 255 259 264 263 266 272 272 261 249 249 250 247 249 240 239 241 235 243 249 245 246 200 198 226 209 184 200 214 226 216 188 184 303 340 7 140 163 159 155 159 164 163 164 166 160 152 153 155 153 155 152 140 141 146
229 225 223 222 221 222 223 223 222 224 224 225 228 230 231 231 232 234 235 236 238 243 249 254 258 262 264 264 264 260 252 247 248 251 253 257 260 262 255 240 237 244 250 254 244 241 245 240 242 244 245 248 205 206 227 213 182 183 194 223 221 189 185 247 310 356 157 164 165 165 164 167 172 170 167 161 158 162 165 160 158 153 140 139 144
228 228 227 226 225 223 223 224 225 226 227 226 227 229 232 234 233 234 235 236 238 242 248 252 255 258 262 263 261 254 245 241 239 240 244 251 255 258 255 240 234 239 246 250 247 245 248 246 245 245 250 251 219 216 221 207 189 182 195 227 220 189 186 208 261 339 158 168 169 172 172 173 179 187 184 166 163 167 172 173 165 155 152 150 147
228 229 228 228 230 226 224 225 227 229 230 229 229 230 232 234 235 235 235 236 239 243 247 250 252 255 259 261 255 246 241 239 236 236 240 249 254 255 253 243 237 240 244 249 252 251 251 251 251 250 253 256 244 233 216 204 198 186 203 230 222 191 184 188 215 318 154 172 173 177 181 181 185 194 183 163 167 170 169 175 167 158 164 164 157
229 228 226 225 230 229 224 225 229 231 232 231 231 232 234 236 238 239 238 239 241 244 247 248 249 252 256 256 249 241 238 238 235 235 239 247 250 250 252 249 246 248 251 256 262 266 265 261 259 257 253 254 256 248 222 212 205 187 202 225 219 193 183 179 192 169 155 177 180 180 183 184 186 190 179 163 169 173 169 175 171 163 168 170 170
230 228 224 222 227 229 226 226 228 232 233 232 233 234 235 237 239 241 242 242 244 245 247 248 248 249 252 251 244 237 234 232 231 232 235 242 246 248 254 256 252 253 258 265 272 276 275 270 264 260 254 252 255 251 233 230 217 192 207 225 216 195 184 179 190 185 156 180 187 186 184 184 186 192 196 180 173 177 175 174 176 171 167 169 178
232 228 224 222 222 225 227 228 228 231 233 234 234 235 236 237 239 240 241 242 245 246 247 248 247 246 247 247 242 235 231 228 228 231 234 239 246 250 254 258 256 255 259 265 271 273 274 275 272 263 250 246 251 247 231 238 234 204 213 225 210 193 187 185 193 194 168 185 191 189 185 184 183 190 202 193 176 180 183 178 177 177 172 176 188
232 229 227 225 222 221 224 228 229 231 233 234 235 236 237 238 239 239 239 240 243 244 245 247 249 247 244 245 243 237 231 228 229 234 238 240 247 251 253 258 257 253 256 260 262 267 271 275 274 266 248 238 244 246 232 241 250 219 216 217 201 195 192 188 194 197 186 192 194 194 192 188 185 187 199 198 184 182 188 188 185 180 179 187 198
232 230 228 228 228 223 221 225 229 232 234 235 235 236 237 238 238 238 239 240 241 241 243 246 248 248 246 244 243 239 234 231 232 237 241 240 245 250 253 256 254 249 252 254 254 260 266 270 271 268 256 240 242 247 241 243 251 240 223 213 203 202 198 191 197 201 195 198 200 204 206 201 199 196 189 193 188 182 185 190 193 191 189 197 207
233 230 229 230 232 228 224 224 230 235 237 237 237 237 236 236 237 238 239 239 239 239 241 243 245 247 247 245 243 239 235 233 234 238 241 241 245 251 253 253 248 245 249 249 248 253 258 263 266 266 261 251 246 248 247 244 248 251 239 221 210 206 201 198 204 205 200 202 205 210 216 216 216 214 194 184 184 184 188 189 193 197 200 206 214
234 232 231 232 233 231 228 227 231 235 237 237 238 238 236 235 236 237 238 239 239 238 239 241 243 245 246 244 241 238 234 233 234 237 240 242 249 254 254 250 244 240 242 243 243 247 253 257 260 263 263 260 254 249 246 242 242 247 248 237 221 212 205 203 205 206 205 206 207 212 218 221 224 224 218 201 188 189 200 199 197 200 204 209 217
234 233 232 233 234 233 231 230 231 234 235 234 235 237 236 235 235 237 239 240 240 238 238 241 244 245 245 244 241 237 234 233 233 236 239 243 251 254 253 251 245 237 236 238 240 244 250 253 255 260 264 263 257 247 239 235 235 241 247 244 229 218 211 204 203 208 212 214 214 217 220 221 225 226 225 223 208 196 206 210 208 210 211 213 220
233 233 232 233 233 234 234 232 233 236 236 234 235 237 236 236 236 238 239 241 242 241 241 242 245 247 245 244 243 239 236 235 234 236 239 243 248 251 251 252 248 238 233 235 239 245 248 249 250 255 259 260 255 244 235 231 232 237 243 244 234 222 213 206 206 212 217 220 220 221 223 223 225 227 226 229 222 209 212 217 218 221 222 222 224
233 233 233 233 234 235 236 235 234 236 236 236 237 240 241 239 238 239 240 242 243 243 244 244 245 247 246 245 245 241 236 236 236 237 241 244 247 247 247 250 250 241 233 233 238 245 248 246 245 247 251 255 253 245 236 230 231 236 243 245 236 220 212 209 211 215 218 221 224 225 227 225 225 227 228 231 229 220 217 219 221 224 227 229 230
234 234 234 235 235 237 238 238 238 238 238 237 238 241 245 244 242 241 242 244 245 245 246 246 246 247 245 245 246 241 233 234 238 240 243 245 247 246 246 248 249 243 236 233 235 241 246 246 243 242 245 250 251 247 239 230 230 234 239 241 236 224 216 214 216 218 217 219 223 228 231 231 231 233 233 235 236 232 227 224 225 227 227 229 231
237 236 237 237 237 237 237 237 236 235 236 237 237 241 247 249 246 245 245 248 251 250 250 249 248 247 245 244 246 242 233 231 236 239 241 242 244 245 246 248 247 244 242 237 234 237 243 245 244 244 245 247 246 243 235 228 229 233 235 236 236 231 225 221 220 220 218 218 223 230 232 233 233 232 232 234 238 240 237 231 231 234 234 231 229
239 239 239 240 239 239 238 237 235 233 232 233 234 237 244 249 249 248 249 252 255 256 256 255 253 251 248 244 245 244 239 234 234 236 238 239 240 242 244 248 248 246 245 240 235 235 239 241 243 243 244 245 244 242 238 236 240 243 241 237 234 232 231 228 227 228 227 227 230 234 235 236 236 236 235 236 239 242 243 240 238 241 243 240 234
240 240 240 240 241 242 243 243 241 239 238 239 239 239 243 249 251 251 251 255 261 262 261 261 258 255 251 246 245 246 246 242 238 235 235 236 239 241 242 246 248 248 247 243 237 233 234 237 239 241 243 245 247 249 250 250 250 247 243 241 236 231 229 230 231 233 233 234 234 234 233 235 238 240 240 240 242 243 246 247 246 247 249 249 247
239 239 240 241 242 243 243 242 241 240 239 241 243 243 243 246 251 253 254 257 263 266 267 266 263 259 255 250 247 248 249 246 243 240 237 236 238 243 243 244 245 247 249 247 241 235 233 234 236 239 243 245 249 253 254 253 249 246 245 245 241 234 231 231 232 233 234 236 238 238 237 236 239 242 243 244 246 247 249 251 250 250 253 254 253
241 240 240 240 241 243 242 240 239 236 234 233 235 235 236 238 243 249 253 257 261 265 268 270 269 265 260 255 250 247 246 246 247 247 245 241 239 242 245 245 244 247 250 251 247 241 237 236 237 239 241 244 247 251 252 251 251 252 249 245 242 240 238 237 237 239 240 240 244 247 248 246 245 246 247 247 249 251 252 252 250 251 254 254 254
245 244 243 240 241 243 242 239 237 233 231 231 231 231 231 232 235 240 245 250 256 260 265 269 271 269 266 261 254 245 241 243 247 249 248 246 242 241 243 243 242 243 247 250 249 246 243 242 241 241 241 243 246 250 254 253 253 254 250 246 244 241 240 242 243 245 246 246 248 252 254 252 250 251 252 252 252 252 252 251 250 250 252 253 255
246 248 247 242 241 245 246 243 238 231 228 230 230 230 231 232 235 238 241 245 249 253 257 261 265 265 265 264 257 247 240 242 245 246 246 245 243 241 240 240 239 238 240 242 243 242 241 241 242 242 241 240 243 248 254 252 249 250 252 252 250 246 245 248 250 249 247 247 250 254 257 256 252 252 255 256 255 252 250 249 248 247 249 251 254
247 249 249 246 242 244 248 248 243 235 230 229 228 228 231 234 236 239 242 244 245 248 249 250 252 256 259 259 255 249 244 244 245 245 246 246 244 243 242 240 238 237 238 240 241 240 239 239 241 242 241 240 240 244 248 247 247 252 257 258 257 254 249 248 247 247 246 246 247 251 255 256 253 250 252 254 253 250 248 248 247 244 244 248 250
245 247 248 246 242 242 246 247 245 241 238 233 229 227 228 232 236 238 240 243 244 246 247 244 243 246 250 251 248 246 246 246 245 244 245 246 246 245 244 241 240 239 239 241 243 243 243 243 243 244 245 244 243 244 246 246 244 247 253 253 249 244 240 239 241 242 243 243 243 245 250 253 252 249 248 249 249 249 251 254 251 244 241 243 247
244 246 248 246 242 242 245 245 243 242 242 239 234 230 227 229 234 236 238 239 242 244 246 245 243 242 244 246 246 246 246 246 245 245 246 246 246 243 242 241 241 240 241 242 242 243 244 244 245 245 246 245 245 246 248 249 245 241 241 243 242 238 235 236 237 238 239 239 240 241 246 251 251 250 249 248 249 252 255 257 251 243 240 242 246
246 248 249 246 243 243 246 245 242 242 243 241 238 235 231 228 231 234 237 238 240 242 243 244 244 242 242 244 244 245 244 243 245 247 247 246 245 241 240 240 241 241 242 242 242 242 242 242 243 243 243 243 243 244 246 247 245 240 239 242 242 240 239 238 238 239 241 242 240 239 242 247 249 249 249 248 249 251 252 250 245 241 241 243 246
246 247 247 244 242 243 244 243 240 241 242 241 239 238 235 232 231 233 236 237 238 238 238 240 241 241 241 243 244 244 243 242 244 246 245 244 243 241 241 242 243 243 243 243 244 244 243 243 243 242 241 241 240 241 243 245 244 241 242 243 243 242 243 243 241 239 241 243 242 239 241 244 246 247 246 246 247 249 248 245 243 241 241 243 245